Regional Weather Roundup
Issued by NWS

Home | Current Version | Previous Version | Text Only | Print | Product List | Glossary Off
Versions: 1 2 3 4 5 6 7 8 9 10 11 12 13 14 15 16 17 18 19 20 21 22 23 24 25 26 27 28 29 30 31 32 33 34 35 36 37 38 39 40 41 42 43 44 45 46 47 48 49 50

000
ASUS43 KOAX 032102
RWRNE

WEATHER ROUNDUP FOR NEBRASKA
NATIONAL WEATHER SERVICE OMAHA NE
300 PM CST SAT DEC 03 2016

NOTES: SATELLITE DATA IS BEING USED TO AUGMENT CLOUD COVER ABOVE
       12000 FEET.
       "FAIR" INDICATES FEW OR NO CLOUDS BELOW 12,000 FEET WITH NO
       SIGNIFICANT WEATHER AND/OR OBSTRUCTIONS TO VISIBILITY.

  * THESE STATIONS DO NOT REPORT WEATHER SUCH AS RAIN...SNOW OR FOG.

NEZ001>004-019>022-054>056-032200-
NEBRASKA PANHANDLE

CITY           SKY/WX    TMP DP  RH WIND       PRES   REMARKS
SCOTTSBLUFF    SUNNY     44  11  26 W18G25    29.93F
ALLIANCE       CLOUDY    42  10  27 NW16G25   29.91S
CHADRON        CLOUDY    41  12  30 W15       29.92S
KIMBALL        MOSUNNY   40  15  35 NW18G29   29.94S WCI  31
SIDNEY         SUNNY     42  10  27 NW18      29.94F
$$

NEZ057>060-069>072-079>082-032200-
SOUTHWEST NEBRASKA

CITY           SKY/WX    TMP DP  RH WIND       PRES   REMARKS
NORTH PLATTE   SUNNY     45  26  47 S16G25    29.98F
IMPERIAL       SUNNY     45  18  34 SW12      29.97F
LEXINGTON      CLOUDY    37  32  82 S16       30.05F WCI  27
MCCOOK         CLOUDY    38  32  79 S13       30.03F WCI  30
OGALLALA       SUNNY     48  15  27 W10       29.96S
$$

NEZ005>010-023>029-035>040-094-032200-
NORTH CENTRAL NEBRASKA

CITY           SKY/WX    TMP DP  RH WIND       PRES   REMARKS
VALENTINE      SUNNY     47  11  23 SW15G26   29.90F
AINSWORTH      SUNNY     47  21  35 SW22      29.91F
BROKEN BOW     MOSUNNY   40  31  70 S21       30.01F WCI  30
O`NEILL        MOSUNNY   41  32  72 S20G31    30.01F
ORD            CLOUDY    37  31  78 S18       30.04F WCI  27
THEDFORD       SUNNY     48  19  32 SW15G29   29.94F
$$

NEZ041-046>049-061>064-073>077-083>087-032200-
SOUTH CENTRAL NEBRASKA

CITY           SKY/WX    TMP DP  RH WIND       PRES   REMARKS
GRAND ISLAND   LGT SNOW  33  33 100 S8        30.11F FOG     WCI  26
AURORA         LGT SNOW  33  33 100 S7        30.11F WCI  26
HASTINGS       LGT SNOW  33  32  96 SE8       30.11F FOG     WCI  26
HEBRON         LGT SNOW  32  32  99 E3        30.14F VSB 1
HOLDREGE       CLOUDY    33  32  97 S7        30.07F FOG     WCI  26
KEARNEY *      CLOUDY    34  30  86 S8        30.08F WCI  27
YORK           LGT SNOW  32  32 100 S6        30.13F VSB 1   WCI  26
$$

NEZ011>018-030>034-042>045-032200-
NORTHEAST NEBRASKA

CITY           SKY/WX    TMP DP  RH WIND       PRES   REMARKS
NORFOLK        LGT SNOW  34  32  92 S9        30.11F FOG     WCI  27
ALBION         CLOUDY    34  32  94 S9        30.10F FOG     WCI  27
BLAIR          LGT SNOW  33  32  96 SE3       30.18F
FREMONT        LGT SNOW  33  33 100 SE5       30.17F WCI  28
TEKAMAH        SNOW      32  31  96 SE8       30.20F VSB 1/2 WCI  25
WAYNE          LGT SNOW  33  33  98 S10       30.14F WCI  25
$$

NEZ050>053-065>068-078-088>093-032200-
SOUTHEAST NEBRASKA

CITY           SKY/WX    TMP DP  RH WIND       PRES   REMARKS
LINCOLN        LGT SNOW  33  32  96 SE6       30.19S VSB 1   WCI  28
OMAHA EPPLEY   LGT SNOW  33  30  88 SE3       30.21F VSB 3/4
BEATRICE       LGT SNOW  33  33  99 NE5       30.16F VSB 1   WCI  29
FALLS CITY     CLOUDY    38  33  82 NE3       30.18F
NEBRASKA CITY  SNOW      32  32  99 NE6       30.19F VSB 1/2 WCI  27
PLATTSMOUTH    LGT SNOW  33  31  94 E5        30.20F VSB 3/4 WCI  28
$$

NEZ044-045-051>053-067-032200-
OMAHA AREA

CITY           SKY/WX    TMP DP  RH WIND       PRES   REMARKS
OMAHA EPPLEY   LGT SNOW  33  30  88 SE3       30.21F VSB 3/4
BLAIR          LGT SNOW  33  32  96 SE3       30.18F
FREMONT        LGT SNOW  33  33 100 SE5       30.17F WCI  28
MILLARD        LGT SNOW  33  32  95 CALM      30.20F
PLATTSMOUTH    LGT SNOW  33  31  94 E5        30.20F VSB 3/4 WCI  28
WAHOO          LGT SNOW  32  32  99 SE7       30.18F VSB 3/4 WCI  26
$$




USA.gov is the U.S. government's official web portal to all federal, state and local government web resources and services.